Showing default

KUIPER-00041, 64502

Orbit data source: Space-Track

KUIPER-00041, 64502 is a payload satellite owned by Kuiper Systems (US) in LEO that was launched on Mon, 23 Jun 2025 UTC via an ATLAS V 551 launch vehicle from the Air Force Eastern Test Range (AFETR). Payload-class satellites include a variety of spacecraft equipped with specific instruments for various scientific and technological missions. These include communications satellites like Starlink; space stations such as the ISS; scientific satellites like the Hubble; Earth observation satellites from companies like Planet Labs, Umbra, and HawkEye 360; GPS; miniature CubeSats for education and research; and military/defense satellites.

Loading next visibility...
Identifier
64502, 2025-134C
Orbit
LEO
Country
Flag of USUS
Related business
Manufacturer
Kuiper Systems
Mission
Operational Commercial Communications
Bus & Motor
KUIPER, Unknown motor
Mass
~490 kg wet, ~490 kg dry
Launch date (UTC)
2025-06-23 (1 year ago)
Launch vehicle
ATLAS V 551
Launch site
Air Force Eastern Test Range (AFETR)
Object type
Payload
Rocket body
Debris
Shape & HBR
Box + 2 Pan, 3.4 m
Radar Cross Section
2.326 m², Large (>1 m²)

Expand to show TLE details & history
Last TLE update: 11 hours ago

TLE from 11 hours ago
0 KUIPER-00041
1 64502U 25134C   26171.39721786  .00002063  00000-0  29949-3 0  9999
2 64502  51.8974 151.4035 0000638  79.9020 280.2014 14.79930928 55106
Epoch: 2026-06-20T09:31Z
TLE epoch observation values (Epoch: 2026-06-20T09:31:59.623Z)
Latitude
-0.00002°
Longitude
99.79262°
Altitude
630.209 km
Speed
7.545 km/s
True Right ascension
10h 05m 36s
True Declination
0° 00' 00"
Sunlit
Object was in daylight at epoch
Visualization orbit readout
Latitude
Unknown
Longitude
Unknown
Altitude
Unknown
Speed
Unknown
Apparent Right ascension
Unknown
Apparent Declination
Unknown
Sunlit
N/A
Visualization observer readout
Local Sidereal Time
07:15:07
Azimuth
Unknown
Elevation
Unknown
Doppler factor
Unknown
Orbital elements
Apogee altitude
630.441 km
Perigee altitude
629.547 km
Semi-major axis
7,008.131 km
Eccentricity
0.00006
Inclination
51.8974°
RAAN
151.4035°
Arg. of periapsis
79.902°
True anomaly
280.1942°
Mean anomaly
280.2014°
Eccentric anomaly
280.1978°
Mean motion
3.69947 °/min
Orbital period
97.31 mins
BSTAR
0.00029949
Loading maneuver chart data...
Computing Atmospheric mass density...
Loading historical data...
Loading historical data...
Loading historical data...
Loading historical data...
Loading historical data...
Loading historical data...
Loading historical data...

Documentation

Showing up to 5 results
|